CES5360 ZGSZ-ZSSS

Flight info

Callsign CES5360
Flight time 1h 35m
Altitude 37100
Route K0900S1130 IDUMA2 IDUMA W41 ISLOM G471 XEBUL DCT ODOPI DCT AKAVO DCT UPNUG W76 AREPI B221 SHZ G204 JTN DCT
Aircraft B77W/H-SDE1E2E3FGHIJ2J3J4J5M1RWXY/LB1D1

Departure

Time 2026-04-22 11:30
Airport Shenzhen Bao'an International Airport (ZGSZ)

Arrival

Time 2026-04-22 13:05
Airport Shanghai Hongqiao International Airport (ZSSS)
Time Latitude Longitude Altitude Speed Heading
2026-04-22 11:26 22.64204 113.80698 28 ft 17 kts 333°
2026-04-22 11:27 22.64314 113.80637 28 ft 17 kts 333°
2026-04-22 11:27 22.64427 113.80576 28 ft 18 kts 333°
2026-04-22 11:27 22.64542 113.80512 28 ft 18 kts 333°
2026-04-22 11:27 22.64659 113.80449 28 ft 18 kts 333°
2026-04-22 11:28 22.64779 113.80383 28 ft 19 kts 333°
2026-04-22 11:28 22.64900 113.80316 28 ft 19 kts 333°
2026-04-22 11:28 22.65015 113.80254 28 ft 17 kts 333°
2026-04-22 11:28 22.65123 113.80194 28 ft 16 kts 333°
2026-04-22 11:29 22.65196 113.80164 28 ft 8 kts 15°
2026-04-22 11:29 22.65240 113.80214 28 ft 9 kts 63°
2026-04-22 11:29 22.65269 113.80276 28 ft 9 kts 63°
2026-04-22 11:29 22.65269 113.80328 28 ft 6 kts 135°
2026-04-22 11:30 22.65197 113.80373 28 ft 26 kts 152°
2026-04-22 11:30 22.64778 113.80601 28 ft 106 kts 153°
2026-04-22 11:30 22.63903 113.81081 99 ft 167 kts 155°
2026-04-22 11:30 22.62849 113.81702 765 ft 182 kts 152°
2026-04-22 11:31 22.61717 113.82253 1719 ft 179 kts 170°
2026-04-22 11:31 22.60450 113.82304 2212 ft 193 kts 193°
2026-04-22 11:31 22.59141 113.81746 2761 ft 210 kts 207°
2026-04-22 11:31 22.57784 113.80994 3383 ft 227 kts 208°
2026-04-22 11:32 22.56379 113.80212 4227 ft 233 kts 209°
2026-04-22 11:32 22.54936 113.79408 5134 ft 236 kts 210°
2026-04-22 11:32 22.53589 113.78352 5722 ft 248 kts 232°
2026-04-22 11:32 22.52836 113.76639 6345 ft 260 kts 260°
2026-04-22 11:33 22.52947 113.74671 7208 ft 266 kts 287°
2026-04-22 11:33 22.53962 113.72956 8132 ft 273 kts 314°
2026-04-22 11:33 22.55633 113.71971 8920 ft 287 kts 342°
2026-04-22 11:33 22.57652 113.71925 9709 ft 301 kts
2026-04-22 11:34 22.59684 113.72630 10467 ft 312 kts 16°
2026-04-22 11:34 22.61777 113.73497 11025 ft 328 kts 17°
2026-04-22 11:34 22.63963 113.74414 11561 ft 345 kts 17°
2026-04-22 11:34 22.66262 113.75381 12112 ft 362 kts 17°
2026-04-22 11:35 22.68661 113.76391 12686 ft 377 kts 17°
2026-04-22 11:35 22.71171 113.77448 13229 ft 394 kts 17°
2026-04-22 11:35 22.73757 113.78539 13812 ft 408 kts 18°
2026-04-22 11:35 22.76441 113.79674 14588 ft 416 kts 18°
2026-04-22 11:36 22.79150 113.80821 15486 ft 420 kts 18°
2026-04-22 11:36 22.81864 113.81969 16378 ft 423 kts 18°
2026-04-22 11:36 22.84604 113.83130 17133 ft 429 kts 18°
2026-04-22 11:36 22.87395 113.84313 17913 ft 434 kts 18°
2026-04-22 11:37 22.90236 113.85518 18647 ft 440 kts 18°
2026-04-22 11:37 22.93115 113.86739 19384 ft 446 kts 18°
2026-04-22 11:37 22.96023 113.87974 20104 ft 451 kts 17°
2026-04-22 11:37 22.98962 113.89222 20831 ft 456 kts 17°
2026-04-22 11:38 23.01944 113.90489 21540 ft 461 kts 17°
2026-04-22 11:38 23.04955 113.91769 22210 ft 466 kts 17°
2026-04-22 11:38 23.11055 113.94367 23695 ft 472 kts 17°
2026-04-22 11:39 23.14157 113.95689 24426 ft 475 kts 17°
2026-04-22 11:39 23.17292 113.97025 25124 ft 479 kts 17°
2026-04-22 11:39 23.20420 113.98360 25787 ft 483 kts 17°
2026-04-22 11:39 23.23623 113.99728 26475 ft 487 kts 17°
2026-04-22 11:40 23.26808 114.01116 27109 ft 493 kts 19°
2026-04-22 11:40 23.29892 114.02934 27759 ft 503 kts 28°
2026-04-22 11:40 23.32794 114.05230 28392 ft 511 kts 33°
2026-04-22 11:40 23.35631 114.07645 29016 ft 515 kts 34°
2026-04-22 11:41 23.38446 114.10055 29747 ft 516 kts 34°
2026-04-22 11:41 23.41258 114.12464 30635 ft 513 kts 33°
2026-04-22 11:41 23.44086 114.14887 31609 ft 508 kts 33°
2026-04-22 11:41 23.46861 114.17265 32449 ft 504 kts 33°
2026-04-22 11:42 23.49635 114.19640 33151 ft 504 kts 33°
2026-04-22 11:42 23.52398 114.22006 33821 ft 505 kts 33°
2026-04-22 11:42 23.55040 114.24268 34508 ft 504 kts 33°
2026-04-22 11:42 23.57788 114.26624 35293 ft 502 kts 33°
2026-04-22 11:43 23.60551 114.28993 36033 ft 500 kts 33°
2026-04-22 11:43 23.63292 114.31344 36594 ft 500 kts 33°
2026-04-22 11:43 23.66089 114.33733 36953 ft 502 kts 32°
2026-04-22 11:43 23.68919 114.36058 36945 ft 503 kts 31°
2026-04-22 11:44 23.74547 114.40655 36945 ft 500 kts 31°
2026-04-22 11:44 23.80209 114.45291 36948 ft 502 kts 31°
2026-04-22 11:45 23.85840 114.49913 36953 ft 502 kts 32°
2026-04-22 11:45 23.91486 114.54555 36958 ft 503 kts 31°
2026-04-22 11:46 23.97108 114.59185 36954 ft 504 kts 31°
2026-04-22 11:46 24.02759 114.63844 36955 ft 504 kts 31°
2026-04-22 11:47 24.08361 114.68469 36937 ft 502 kts 32°
2026-04-22 11:47 24.14019 114.73145 36936 ft 503 kts 32°
2026-04-22 11:48 24.19664 114.77816 36942 ft 505 kts 32°
2026-04-22 11:48 24.25307 114.82491 36948 ft 504 kts 32°
2026-04-22 11:49 24.30365 114.87920 36956 ft 513 kts 47°
2026-04-22 11:49 24.34791 114.94183 36960 ft 516 kts 48°
2026-04-22 11:50 24.39191 115.00463 36967 ft 514 kts 48°
2026-04-22 11:50 24.43577 115.06728 36965 ft 515 kts 48°
2026-04-22 11:51 24.47956 115.12989 36965 ft 516 kts 48°
2026-04-22 11:51 24.52383 115.19329 36959 ft 516 kts 48°
2026-04-22 11:52 24.56777 115.25627 36956 ft 515 kts 48°
2026-04-22 11:52 24.61155 115.31912 36971 ft 515 kts 48°
2026-04-22 11:53 24.65534 115.38205 36980 ft 516 kts 48°
2026-04-22 11:53 24.69865 115.44587 36985 ft 516 kts 50°
2026-04-22 11:54 24.74046 115.51048 36979 ft 516 kts 50°
2026-04-22 11:54 24.78245 115.57533 36991 ft 518 kts 50°
2026-04-22 11:55 24.82444 115.64018 37000 ft 517 kts 50°
2026-04-22 11:55 24.86631 115.70488 36988 ft 517 kts 50°
2026-04-22 11:56 24.90692 115.76765 36981 ft 517 kts 50°
2026-04-22 11:56 24.94935 115.83333 36979 ft 518 kts 50°
2026-04-22 11:57 24.99038 115.89690 36981 ft 520 kts 50°
2026-04-22 11:57 25.03153 115.96075 36984 ft 520 kts 50°
2026-04-22 11:58 25.07376 116.02636 36988 ft 520 kts 50°
2026-04-22 11:58 25.11578 116.09173 36999 ft 519 kts 50°
2026-04-22 11:59 25.15714 116.15615 37007 ft 520 kts 50°
2026-04-22 11:59 25.19841 116.22052 37002 ft 519 kts 50°
2026-04-22 12:00 25.27283 116.33682 37006 ft 520 kts 50°
2026-04-22 12:01 25.31322 116.40007 37009 ft 520 kts 50°
2026-04-22 12:01 25.35422 116.46435 37012 ft 519 kts 50°
2026-04-22 12:02 25.39425 116.52718 37017 ft 519 kts 50°
2026-04-22 12:02 25.43603 116.59287 37014 ft 519 kts 50°
2026-04-22 12:03 25.47805 116.65902 36999 ft 519 kts 50°
2026-04-22 12:03 25.51922 116.72390 36999 ft 523 kts 50°
2026-04-22 12:04 25.55961 116.78767 37002 ft 522 kts 50°
2026-04-22 12:04 25.60173 116.85425 37016 ft 524 kts 51°
2026-04-22 12:05 25.64380 116.92086 37021 ft 520 kts 50°
2026-04-22 12:05 25.68494 116.98607 37028 ft 522 kts 51°
2026-04-22 12:06 25.72711 117.05300 37029 ft 524 kts 50°
2026-04-22 12:06 25.76897 117.11958 37022 ft 521 kts 50°
2026-04-22 12:07 25.81054 117.18574 37025 ft 521 kts 50°
2026-04-22 12:07 25.85193 117.25173 37028 ft 522 kts 50°
2026-04-22 12:08 25.89354 117.31816 37026 ft 521 kts 50°
2026-04-22 12:08 25.93478 117.38410 37029 ft 523 kts 50°
2026-04-22 12:09 25.97681 117.45139 37039 ft 524 kts 50°
2026-04-22 12:09 26.01825 117.51784 37055 ft 524 kts 50°
2026-04-22 12:10 26.05894 117.58319 37025 ft 523 kts 50°
2026-04-22 12:10 26.09200 117.63633 37012 ft 526 kts 50°
2026-04-22 12:11 26.17194 117.76513 37006 ft 524 kts 50°
2026-04-22 12:12 26.21340 117.83205 37011 ft 525 kts 51°
2026-04-22 12:12 26.25524 117.89970 37005 ft 526 kts 51°
2026-04-22 12:13 26.29614 117.96593 36993 ft 526 kts 51°
2026-04-22 12:13 26.33762 118.03319 36983 ft 526 kts 51°
2026-04-22 12:14 26.37930 118.10090 36978 ft 524 kts 51°
2026-04-22 12:14 26.41981 118.16678 36967 ft 523 kts 51°
2026-04-22 12:15 26.46143 118.23454 36959 ft 526 kts 51°
2026-04-22 12:15 26.50277 118.30199 36958 ft 524 kts 51°
2026-04-22 12:16 26.54394 118.36923 36961 ft 526 kts 51°
2026-04-22 12:16 26.58554 118.43729 36969 ft 526 kts 51°
2026-04-22 12:17 26.62701 118.50525 36975 ft 527 kts 50°
2026-04-22 12:17 26.66600 118.56922 36983 ft 525 kts 50°
2026-04-22 12:18 26.70830 118.63872 36997 ft 529 kts 50°
2026-04-22 12:18 26.74963 118.70676 36989 ft 526 kts 51°
2026-04-22 12:19 26.79020 118.77361 36999 ft 528 kts 51°
2026-04-22 12:19 26.83204 118.84268 37018 ft 529 kts 51°
2026-04-22 12:20 26.87322 118.91079 37026 ft 526 kts 50°
2026-04-22 12:20 26.91436 118.97888 37030 ft 530 kts 51°
2026-04-22 12:21 26.95356 119.04390 37044 ft 530 kts 51°
2026-04-22 12:21 26.99476 119.11231 37042 ft 532 kts 51°
2026-04-22 12:22 27.03607 119.18104 37035 ft 532 kts 51°
2026-04-22 12:22 27.07714 119.24946 37021 ft 529 kts 51°
2026-04-22 12:23 27.11831 119.31814 37015 ft 532 kts 51°
2026-04-22 12:23 27.15984 119.38753 37004 ft 533 kts 51°
2026-04-22 12:24 27.20099 119.45642 36992 ft 532 kts 51°
2026-04-22 12:24 27.24269 119.52631 36972 ft 535 kts 51°
2026-04-22 12:25 27.28053 119.60010 36976 ft 539 kts 58°
2026-04-22 12:25 27.31503 119.67484 36965 ft 540 kts 58°
2026-04-22 12:26 27.34967 119.75013 36964 ft 542 kts 59°
2026-04-22 12:26 27.38448 119.82597 36967 ft 539 kts 59°
2026-04-22 12:27 27.41892 119.90115 36967 ft 542 kts 58°
2026-04-22 12:27 27.45311 119.97595 36962 ft 539 kts 59°
2026-04-22 12:28 27.48807 120.05254 36949 ft 541 kts 59°
2026-04-22 12:28 27.52241 120.12793 36946 ft 542 kts 59°
2026-04-22 12:29 27.55666 120.20327 36941 ft 542 kts 59°
2026-04-22 12:29 27.59107 120.27908 36934 ft 540 kts 59°
2026-04-22 12:30 27.63012 120.35068 36922 ft 530 kts 45°
2026-04-22 12:30 27.65553 120.38108 36918 ft 523 kts 36°
2026-04-22 12:31 27.71373 120.42876 36917 ft 517 kts 25°
2026-04-22 12:31 27.77406 120.47246 36908 ft 511 kts 25°
2026-04-22 12:32 27.83441 120.51608 36910 ft 515 kts 25°
2026-04-22 12:32 27.92449 120.58128 36906 ft 514 kts 25°
2026-04-22 12:33 27.98502 120.62479 36896 ft 511 kts 21°
2026-04-22 12:33 28.04996 120.65399 36895 ft 498 kts
2026-04-22 12:34 28.08412 120.66015 36894 ft 486 kts 357°
2026-04-22 12:34 28.11734 120.66390 36891 ft 479 kts 356°
2026-04-22 12:34 28.18485 120.67087 36905 ft 483 kts 356°
2026-04-22 12:35 28.25256 120.67768 36914 ft 484 kts 356°
2026-04-22 12:35 28.32056 120.68447 36925 ft 484 kts 356°
2026-04-22 12:36 28.38756 120.69112 36935 ft 482 kts 356°
2026-04-22 12:36 28.45504 120.69778 36950 ft 486 kts 356°
2026-04-22 12:37 28.52173 120.70452 36960 ft 484 kts 356°
2026-04-22 12:37 28.58906 120.71130 36957 ft 484 kts 356°
2026-04-22 12:38 28.65658 120.71810 36957 ft 488 kts 356°
2026-04-22 12:38 28.72478 120.72517 36957 ft 486 kts 357°
2026-04-22 12:39 28.82661 120.73639 36955 ft 489 kts 357°
2026-04-22 12:40 28.89461 120.74372 36954 ft 489 kts 356°
2026-04-22 12:40 28.96199 120.75065 36968 ft 487 kts 356°
2026-04-22 12:41 29.03009 120.75762 36970 ft 489 kts 357°
2026-04-22 12:41 29.09810 120.76463 36979 ft 489 kts 356°
2026-04-22 12:42 29.16616 120.77169 36343 ft 483 kts 357°
2026-04-22 12:42 29.19995 120.77516 35412 ft 486 kts 357°
2026-04-22 12:42 29.23395 120.77866 34523 ft 488 kts 358°
2026-04-22 12:42 29.26835 120.78221 33645 ft 489 kts 358°
2026-04-22 12:43 29.30278 120.78577 32787 ft 490 kts 358°
2026-04-22 12:43 29.33680 120.78930 31898 ft 492 kts 358°
2026-04-22 12:43 29.37154 120.79289 30976 ft 493 kts 358°
2026-04-22 12:43 29.40620 120.79650 30269 ft 489 kts 358°
2026-04-22 12:44 29.43987 120.80003 29802 ft 481 kts 358°
2026-04-22 12:44 29.47318 120.80351 29279 ft 474 kts 358°
2026-04-22 12:44 29.50593 120.80693 28739 ft 469 kts 358°
2026-04-22 12:44 29.53841 120.81032 28202 ft 464 kts 358°
2026-04-22 12:45 29.57082 120.81409 27633 ft 462 kts
2026-04-22 12:45 29.60273 120.82270 27067 ft 472 kts 12°
2026-04-22 12:45 29.63337 120.83711 26480 ft 488 kts 21°
2026-04-22 12:45 29.66403 120.85547 25862 ft 488 kts 22°
2026-04-22 12:46 29.69384 120.87382 25254 ft 484 kts 22°
2026-04-22 12:46 29.72371 120.89223 24631 ft 481 kts 23°
2026-04-22 12:46 29.75312 120.91035 24017 ft 477 kts 23°
2026-04-22 12:46 29.78216 120.92823 23435 ft 473 kts 22°
2026-04-22 12:47 29.81135 120.94621 22825 ft 470 kts 22°
2026-04-22 12:47 29.84036 120.96407 22213 ft 468 kts 22°
2026-04-22 12:47 29.86902 120.98172 21589 ft 466 kts 23°
2026-04-22 12:47 29.89744 120.99922 20964 ft 463 kts 23°
2026-04-22 12:48 29.92597 121.01680 20325 ft 461 kts 23°
2026-04-22 12:48 29.95438 121.03432 19681 ft 459 kts 24°
2026-04-22 12:48 29.98277 121.05183 19038 ft 457 kts 24°
2026-04-22 12:48 30.01085 121.06921 18394 ft 454 kts 24°
2026-04-22 12:49 30.03840 121.08625 17767 ft 452 kts 24°
2026-04-22 12:49 30.06584 121.10324 17141 ft 449 kts 24°
2026-04-22 12:49 30.09323 121.12021 16501 ft 446 kts 24°
2026-04-22 12:49 30.12078 121.13729 15849 ft 444 kts 24°
2026-04-22 12:50 30.14777 121.15404 15207 ft 441 kts 24°
2026-04-22 12:50 30.16760 121.16634 14730 ft 438 kts 24°
2026-04-22 12:50 30.19786 121.18514 14004 ft 434 kts 24°
2026-04-22 12:50 30.22439 121.20163 13342 ft 426 kts 24°
2026-04-22 12:51 30.25103 121.21558 12734 ft 417 kts 15°
2026-04-22 12:51 30.27916 121.22388 12099 ft 408 kts
2026-04-22 12:51 30.30703 121.22804 11496 ft 402 kts
2026-04-22 12:51 30.33470 121.23167 10895 ft 397 kts
2026-04-22 12:52 30.36187 121.23522 10554 ft 385 kts
2026-04-22 12:52 30.38782 121.23862 10514 ft 366 kts
2026-04-22 12:52 30.41279 121.24188 10440 ft 350 kts
2026-04-22 12:52 30.43663 121.24499 10306 ft 337 kts
2026-04-22 12:53 30.45970 121.24802 10157 ft 326 kts
2026-04-22 12:53 30.48179 121.25134 10026 ft 315 kts
2026-04-22 12:53 30.50327 121.25463 9767 ft 309 kts
2026-04-22 12:53 30.52456 121.25784 9427 ft 306 kts
2026-04-22 12:54 30.54523 121.26097 9318 ft 296 kts
2026-04-22 12:54 30.56586 121.26391 8776 ft 301 kts
2026-04-22 12:54 30.58626 121.26659 8659 ft 290 kts
2026-04-22 12:54 30.60646 121.26925 8310 ft 291 kts
2026-04-22 12:55 30.62671 121.27194 7965 ft 289 kts
2026-04-22 12:55 30.64641 121.27457 7709 ft 284 kts
2026-04-22 12:55 30.66588 121.27719 7477 ft 279 kts
2026-04-22 12:55 30.68506 121.27977 7250 ft 273 kts
2026-04-22 12:56 30.70390 121.28230 7026 ft 269 kts
2026-04-22 12:56 30.72256 121.28494 6805 ft 265 kts
2026-04-22 12:56 30.74065 121.28800 6594 ft 260 kts
2026-04-22 12:56 30.75844 121.29101 6384 ft 255 kts
2026-04-22 12:57 30.77584 121.29390 6182 ft 250 kts
2026-04-22 12:57 30.79285 121.29672 5980 ft 245 kts
2026-04-22 12:57 30.80971 121.30006 5765 ft 242 kts 15°
2026-04-22 12:57 30.82508 121.30772 5519 ft 243 kts 23°
2026-04-22 12:58 30.84042 121.31641 5243 ft 243 kts 23°
2026-04-22 12:58 30.85557 121.32505 4971 ft 242 kts 23°
2026-04-22 12:58 30.87066 121.33364 4693 ft 241 kts 23°
2026-04-22 12:58 30.88603 121.34132 4410 ft 239 kts 14°
2026-04-22 12:59 30.90232 121.34541 4130 ft 237 kts
2026-04-22 12:59 30.91869 121.34751 3849 ft 236 kts
2026-04-22 12:59 30.93515 121.34835 3572 ft 236 kts
2026-04-22 12:59 30.95154 121.34840 3297 ft 235 kts 359°
2026-04-22 13:00 30.96786 121.34798 3035 ft 233 kts 358°
2026-04-22 13:00 30.98386 121.34737 2983 ft 224 kts 358°
2026-04-22 13:00 30.99918 121.34669 2972 ft 214 kts 357°
2026-04-22 13:00 31.01368 121.34600 2973 ft 201 kts 357°
2026-04-22 13:01 31.02724 121.34533 2981 ft 187 kts 357°
2026-04-22 13:01 31.03990 121.34468 2817 ft 179 kts 357°
2026-04-22 13:01 31.05211 121.34404 2587 ft 171 kts 358°
2026-04-22 13:01 31.06356 121.34344 2369 ft 157 kts 358°
2026-04-22 13:02 31.07427 121.34287 2166 ft 152 kts 358°
2026-04-22 13:02 31.08482 121.34231 1966 ft 151 kts 358°
2026-04-22 13:02 31.09519 121.34174 1764 ft 150 kts 359°
2026-04-22 13:02 31.10564 121.34119 1566 ft 148 kts 359°
2026-04-22 13:03 31.11605 121.34064 1362 ft 144 kts 360°
2026-04-22 13:03 31.12575 121.34013 1176 ft 137 kts 360°
2026-04-22 13:03 31.13525 121.33961 995 ft 135 kts 359°
2026-04-22 13:03 31.14467 121.33911 807 ft 136 kts 359°
2026-04-22 13:04 31.15420 121.33858 618 ft 135 kts 359°
2026-04-22 13:04 31.16360 121.33810 433 ft 135 kts 359°
2026-04-22 13:04 31.17308 121.33757 254 ft 136 kts 359°
2026-04-22 13:04 31.18249 121.33710 97 ft 134 kts 358°
2026-04-22 13:05 31.19151 121.33662 21 ft 117 kts 358°
2026-04-22 13:05 31.19823 121.33629 25 ft 74 kts 357°
2026-04-22 13:05 31.20224 121.33607 24 ft 50 kts 356°
2026-04-22 13:05 31.20501 121.33581 33 ft 33 kts 346°
2026-04-22 13:06 31.20702 121.33478 29 ft 30 kts 329°
2026-04-22 13:06 31.20890 121.33378 27 ft 28 kts 355°
2026-04-22 13:06 31.21072 121.33370 26 ft 24 kts 357°
2026-04-22 13:06 31.21163 121.33319 28 ft 13 kts 280°
2026-04-22 13:07 31.21160 121.33197 31 ft 16 kts 267°
2026-04-22 13:07 31.21153 121.33036 29 ft 22 kts 262°
2026-04-22 13:07 31.21034 121.32988 28 ft 19 kts 177°
2026-04-22 13:07 31.20897 121.32995 27 ft 19 kts 177°
2026-04-22 13:08 31.20756 121.33003 25 ft 20 kts 177°
2026-04-22 13:08 31.20613 121.33011 24 ft 20 kts 177°
2026-04-22 13:08 31.20475 121.33019 24 ft 19 kts 177°
2026-04-22 13:08 31.20342 121.33025 24 ft 18 kts 177°
2026-04-22 13:09 31.20218 121.33033 26 ft 17 kts 176°
2026-04-22 13:09 31.20103 121.33038 27 ft 16 kts 178°
2026-04-22 13:09 31.19993 121.33045 27 ft 15 kts 178°
2026-04-22 13:09 31.19887 121.33051 27 ft 15 kts 177°
2026-04-22 13:10 31.19779 121.33056 27 ft 15 kts 177°
2026-04-22 13:10 31.19673 121.33044 26 ft 14 kts 221°
2026-04-22 13:10 31.19652 121.32925 24 ft 15 kts 266°
2026-04-22 13:10 31.19647 121.32800 23 ft 15 kts 268°
2026-04-22 13:11 31.19621 121.32690 24 ft 13 kts 234°
2026-04-22 13:11 31.19596 121.32591 25 ft 12 kts 266°
2026-04-22 13:11 31.19594 121.32551 26 ft 0 kts 267°
2026-04-22 13:11 31.19594 121.32547 26 ft 0 kts 268°
2026-04-22 13:12 31.19594 121.32544 26 ft 0 kts 268°